Theta_e
308 308 308 308 308 308 308 308 308 308 308 309 309 309 309 310 309 310 310 310 311 311 311 311 311 311 311 311 311 312 314 314 315 316 316 317 315 315 315 314 314 314 314 315 315 314 314 315 315 314 317 316 317 320 319 316 315 319 322 318 316 317 316 316 316 317 318 318 318 318 318 317 318 318 317 316 316 317 317 317 317 316 315 315 315 314 314 314
308 308 308 308 308 308 308 308 309 309 309 309 309 309 309 310 310 310 310 311 311 311 311 311 311 311 311 311 312 313 314 314 316 317 315 314 314 314 314 314 314 315 315 316 316 315 315 316 315 315 317 317 318 319 320 319 317 320 320 317 317 317 316 316 317 317 317 318 318 318 317 317 317 317 316 316 317 318 317 318 318 316 315 315 314 314 314 313
309 308 309 309 309 309 309 309 309 309 309 309 309 310 310 310 310 310 311 311 311 311 311 310 311 311 311 312 312 313 314 315 318 316 314 314 314 314 314 314 314 314 314 316 316 315 314 315 315 316 316 317 318 318 319 320 319 320 319 319 318 317 317 316 317 317 316 317 318 318 317 316 316 316 316 316 317 318 318 318 318 317 315 315 314 313 313 312
309 309 309 309 309 309 309 309 309 309 309 309 309 310 310 310 310 310 311 311 311 311 310 311 311 311 311 312 313 314 314 317 319 315 313 314 314 314 314 314 314 314 314 315 317 317 314 314 315 316 317 318 317 317 319 319 319 320 318 319 318 316 317 317 316 317 317 317 317 318 317 316 317 316 316 316 317 318 318 316 315 316 315 314 313 312 312 312
309 309 309 309 309 309 309 309 309 309 309 309 309 310 310 310 310 311 310 310 310 310 311 310 311 311 311 312 313 314 314 318 317 314 314 314 313 314 313 314 313 314 315 316 318 318 315 315 315 316 317 318 318 317 318 318 316 318 318 318 318 317 317 317 317 317 316 316 316 317 316 316 317 315 316 316 316 318 317 314 313 313 312 311 311 311 311 311
310 309 309 309 309 309 309 309 309 309 309 309 310 310 310 310 310 310 310 310 310 310 310 310 311 311 312 313 314 314 316 319 317 314 314 314 314 314 314 314 314 315 316 317 318 318 316 315 316 318 318 318 318 317 318 317 316 317 318 318 318 317 317 318 317 316 316 316 316 317 317 316 316 316 316 316 316 317 315 313 312 311 310 310 310 311 311 312
311 310 310 309 309 309 309 309 309 309 309 309 310 310 310 310 310 310 310 310 310 310 310 310 311 312 313 314 315 318 319 320 318 316 316 316 317 317 316 316 315 316 317 317 317 318 316 316 317 318 318 318 317 317 316 317 317 317 318 318 318 317 317 318 317 316 315 315 316 316 315 315 316 316 316 316 316 315 313 312 311 310 310 310 310 311 311 312
312 311 311 310 309 309 309 309 309 309 309 309 310 310 309 310 310 310 310 310 310 310 310 311 312 314 315 315 318 321 320 321 320 319 318 318 319 318 318 317 316 317 317 318 318 317 316 316 317 317 318 318 316 317 316 316 318 317 318 318 317 317 316 317 316 316 315 315 316 315 315 316 316 316 315 316 315 313 312 311 310 310 311 310 311 311 311 312
311 312 311 311 310 310 309 309 309 309 309 309 309 309 309 309 309 309 310 310 310 310 311 312 313 315 316 317 320 320 320 321 320 319 319 318 318 318 318 317 317 317 318 319 319 317 316 317 317 316 317 317 316 317 316 315 318 317 317 317 317 317 317 316 316 316 316 316 315 314 316 317 316 315 315 315 314 312 311 310 310 311 311 311 311 311 312 312
311 311 311 311 311 310 309 309 309 309 309 309 309 309 309 309 309 310 309 310 310 311 313 314 315 316 317 319 320 320 320 320 318 318 318 318 318 318 318 317 318 318 318 319 318 317 316 317 316 316 317 316 316 316 315 315 316 316 316 316 316 316 316 316 316 317 316 316 315 314 316 317 314 314 315 314 312 311 311 310 310 311 311 311 311 311 312 312
310 310 311 311 311 310 309 309 308 309 308 308 309 309 309 309 309 309 310 311 312 313 315 316 317 318 318 319 320 321 320 319 318 318 318 318 317 317 318 318 318 318 318 318 318 317 316 316 315 316 317 317 316 316 315 315 315 315 315 316 317 317 317 317 317 317 316 316 315 314 315 316 314 313 315 313 311 311 312 312 311 311 311 311 311 312 312 312
309 310 310 310 310 310 309 309 308 308 308 308 309 309 309 309 310 310 312 313 314 315 317 318 318 319 318 319 320 321 320 318 318 318 317 317 317 317 317 318 318 318 318 317 317 317 316 315 315 316 316 317 317 316 315 314 314 315 315 316 318 318 319 319 318 316 316 315 314 314 316 316 314 313 313 311 311 311 312 312 311 311 310 311 311 311 311 311
308 309 309 309 309 309 308 308 308 308 308 308 309 309 310 310 312 313 314 315 316 317 318 319 319 318 317 319 320 319 319 318 318 317 317 317 317 317 317 317 318 317 318 317 317 316 316 315 315 316 315 317 318 316 315 314 314 315 316 316 318 320 320 318 317 315 315 315 313 314 318 319 315 314 312 310 311 311 313 313 312 311 310 310 310 310 311 310
307 307 308 308 308 307 308 307 308 308 308 308 309 311 312 313 314 315 316 317 318 318 319 319 318 317 316 318 319 318 318 317 318 317 317 318 317 318 318 318 318 318 318 318 316 315 315 315 315 316 315 316 316 314 315 316 315 317 317 317 318 320 319 316 316 316 316 315 314 314 318 319 316 313 312 311 311 312 314 314 312 312 311 310 310 309 309 309
306 306 306 307 307 307 307 307 308 308 309 310 311 313 314 315 316 317 317 318 318 319 318 317 316 316 318 319 318 317 317 317 317 317 317 318 318 318 318 318 318 318 318 317 316 315 315 315 316 317 316 315 315 315 317 318 317 317 318 319 320 320 320 318 316 317 317 315 314 315 318 320 316 314 313 311 311 312 314 314 313 312 311 310 310 309 308 309
306 306 306 306 307 307 308 308 309 310 311 312 314 315 315 316 317 317 318 318 318 317 316 316 315 316 318 319 318 318 317 317 318 317 318 318 318 318 318 318 317 317 316 316 315 315 315 316 316 317 316 315 316 317 319 320 320 319 318 320 321 321 321 320 316 315 317 315 315 316 318 321 317 314 313 311 311 312 313 314 313 311 311 310 310 309 308 308
307 307 307 308 309 310 311 311 312 314 314 315 315 316 316 317 317 317 317 317 316 315 315 315 316 316 318 319 318 318 318 318 318 318 319 318 318 318 317 317 316 316 316 315 316 316 316 316 316 317 317 317 318 318 320 320 321 320 320 320 321 321 321 320 317 315 316 316 317 316 317 319 318 315 313 312 312 312 313 314 313 312 311 310 309 308 308 307
309 309 310 311 312 313 314 315 315 316 316 316 316 316 316 316 316 316 315 314 314 314 314 315 316 317 319 319 319 319 319 318 319 319 319 319 318 317 317 317 316 316 316 316 317 316 317 317 316 318 318 318 318 319 320 321 321 321 321 321 321 321 320 320 319 317 316 316 317 318 318 318 318 317 315 313 312 313 314 314 312 312 311 310 309 308 307 307
311 312 313 314 314 315 315 316 316 316 317 316 316 316 315 315 315 315 314 313 315 317 318 318 317 318 320 321 319 319 319 319 319 319 319 319 318 317 317 317 316 317 317 318 318 317 317 318 317 319 320 319 319 319 321 322 321 321 321 321 321 321 320 320 320 317 316 317 317 318 319 319 319 318 316 313 312 313 313 313 312 311 310 309 308 308 307 306
313 313 314 315 315 316 316 316 316 317 316 316 316 315 315 317 317 317 316 314 315 317 319 321 319 319 321 321 320 320 319 319 319 318 318 318 318 317 316 317 317 317 319 320 319 317 317 319 319 320 321 321 320 320 320 321 320 319 320 320 320 320 320 321 320 316 315 317 318 319 319 318 318 318 317 314 312 313 313 312 312 311 310 309 308 307 306 305
314 314 314 315 315 316 316 316 316 316 316 315 315 315 317 319 319 321 320 318 318 317 317 319 319 319 321 320 321 320 319 319 318 318 318 318 317 317 317 317 318 318 319 320 319 316 316 319 321 321 322 321 320 320 320 319 319 319 319 319 320 320 320 321 320 316 314 316 318 318 318 318 318 318 318 315 313 314 313 313 312 311 310 309 308 307 306 305
315 315 315 315 315 316 316 316 316 315 314 314 314 314 316 318 318 318 319 319 321 320 318 319 319 319 319 320 320 320 320 319 319 318 318 318 317 318 318 317 318 320 319 319 318 317 318 320 321 321 321 319 318 318 318 318 318 319 319 319 320 320 320 321 320 316 314 315 318 319 318 318 318 319 318 315 314 314 312 312 312 311 310 308 308 307 305 305
315 315 314 314 315 315 315 314 314 314 313 313 313 313 314 316 316 316 317 319 321 321 321 320 320 320 319 320 320 320 320 320 320 319 318 318 317 317 318 317 318 320 318 317 319 321 321 321 321 321 319 318 318 317 317 317 318 319 319 319 320 321 321 321 319 315 314 315 317 318 317 318 319 319 316 313 313 312 310 309 310 309 309 308 307 306 305 305
314 314 314 314 314 314 314 313 313 313 313 312 312 312 313 314 315 316 318 320 321 322 322 322 321 321 321 320 320 320 319 321 322 320 319 318 317 317 318 318 319 320 318 318 319 321 322 320 319 319 317 317 318 317 317 317 318 319 319 320 320 321 321 321 319 316 316 316 315 316 318 319 320 319 316 311 310 310 308 308 308 307 307 306 305 305 304 304
313 314 314 315 315 315 314 313 313 313 312 312 312 312 313 314 316 318 320 321 323 323 322 322 321 322 322 321 321 320 319 320 321 320 319 318 317 317 317 318 319 320 319 319 318 320 321 318 317 318 317 317 319 318 318 318 319 321 320 320 320 320 320 320 320 318 319 320 317 316 320 321 319 320 318 312 309 309 308 308 308 307 306 305 305 304 303 303
313 314 315 315 316 316 315 314 313 312 313 312 312 312 313 315 318 319 319 322 323 322 320 321 322 322 321 321 320 320 320 320 319 320 320 318 316 317 317 317 318 319 319 319 319 320 319 316 316 318 318 318 319 319 319 319 320 322 321 319 319 319 319 320 320 319 321 322 317 315 320 322 319 319 318 314 312 310 308 308 308 307 305 305 305 304 303 303
314 314 314 316 316 315 314 315 315 313 313 313 313 314 315 317 318 318 320 323 325 323 321 320 320 320 319 320 319 321 322 320 318 318 318 317 316 316 317 318 317 317 318 319 320 320 317 315 317 318 319 319 319 319 320 319 320 322 319 317 318 318 319 320 319 319 320 321 317 315 318 321 320 321 319 316 314 312 309 308 308 307 306 305 305 304 303 302
315 315 315 315 316 315 314 315 316 314 314 315 315 315 317 319 319 319 322 324 325 322 321 318 317 316 317 318 319 319 318 317 318 317 315 316 316 315 317 318 318 317 317 319 321 320 317 317 318 318 318 320 319 319 320 319 320 319 316 316 318 317 318 319 319 319 319 319 320 319 318 320 321 320 318 315 315 315 313 310 309 308 307 305 305 304 303 302
315 315 315 315 315 315 314 315 315 315 315 316 317 317 319 319 319 320 322 324 324 320 319 317 315 315 316 317 317 316 313 314 316 316 313 314 315 315 316 318 318 318 316 317 321 320 316 315 316 317 319 320 318 316 316 318 319 316 315 315 316 316 317 317 318 319 318 318 320 320 319 320 321 319 318 317 316 317 316 312 310 309 307 306 305 304 302 302
319 318 318 316 315 316 315 315 315 315 316 317 318 319 319 319 319 322 323 325 324 320 316 315 316 316 316 317 317 315 314 314 313 313 314 314 314 314 315 316 317 317 316 316 318 316 313 311 313 316 317 317 314 311 312 315 316 315 315 316 317 316 316 316 317 317 318 320 319 319 320 320 321 320 318 318 317 316 315 312 310 309 308 306 305 303 302 301
323 323 322 319 317 316 316 316 316 316 316 318 320 319 318 320 322 325 325 323 321 319 315 315 316 316 317 318 318 316 314 314 314 314 314 314 314 314 315 316 317 317 317 317 317 316 313 312 314 314 314 314 313 312 311 312 313 315 317 317 318 317 316 316 317 316 319 322 318 315 318 320 320 319 317 316 314 313 314 312 310 309 308 306 304 303 302 302
325 325 324 322 321 318 316 317 317 317 317 319 320 318 320 323 324 326 324 320 320 320 318 317 316 316 317 319 319 316 314 315 314 315 315 315 315 315 316 318 318 319 320 319 319 318 316 316 315 314 312 313 315 314 312 312 313 315 316 317 319 320 319 319 319 318 320 320 314 312 316 318 319 318 316 315 313 313 313 312 311 309 307 306 304 303 302 302
326 325 324 323 323 321 318 317 317 317 318 319 319 318 320 324 326 325 324 322 321 318 317 317 315 316 318 319 319 316 315 316 315 315 316 316 317 316 317 318 318 320 322 321 320 319 319 317 316 314 313 313 315 316 315 314 313 315 317 318 320 322 322 323 322 320 321 317 311 312 314 316 317 317 316 314 312 312 311 311 311 310 307 306 304 302 302 302
325 324 324 323 323 323 322 319 316 316 318 319 318 318 319 323 324 323 324 324 319 315 315 316 316 317 318 319 318 315 316 316 314 315 316 316 317 317 318 317 317 319 320 320 321 321 322 321 317 316 315 314 315 317 318 316 314 315 317 318 320 321 322 324 322 321 320 316 311 311 313 316 317 315 312 310 308 308 308 308 309 309 308 306 304 302 302 302
325 324 324 323 322 322 322 320 317 316 318 318 318 319 320 322 321 321 324 323 317 314 314 315 316 317 318 318 316 315 316 317 315 315 316 317 318 318 319 318 317 318 319 321 322 321 323 323 317 314 314 314 315 317 317 317 316 316 316 317 319 319 320 320 318 317 317 316 314 312 314 316 315 312 308 307 307 306 306 306 307 308 308 306 304 302 302 302
324 324 323 322 322 321 321 321 317 316 318 319 319 319 319 321 321 321 323 322 318 315 314 315 317 317 319 318 316 315 315 316 316 316 316 317 318 318 319 319 318 317 318 320 320 320 321 320 315 312 312 312 313 315 315 316 317 316 315 317 317 317 318 318 316 314 314 317 318 315 315 316 315 313 310 308 308 307 306 307 307 307 307 306 304 303 302 302
324 324 322 321 322 321 321 320 318 316 317 319 320 319 319 321 321 321 321 320 317 315 315 318 318 317 319 319 316 315 315 315 316 316 317 318 318 318 318 319 318 317 317 319 319 319 320 318 313 313 314 311 309 312 313 313 315 316 316 317 316 315 316 317 318 317 317 319 320 317 317 317 317 316 312 310 310 309 307 307 307 307 307 306 305 304 303 302
324 324 322 321 322 321 321 320 318 316 317 319 321 320 319 320 320 320 320 317 316 316 318 320 320 318 319 320 318 315 314 315 315 315 317 318 318 318 317 317 318 317 317 317 317 317 318 319 314 312 313 311 308 311 314 312 312 313 315 315 316 317 318 317 317 319 320 321 321 319 318 317 318 317 313 312 313 312 310 308 307 307 307 307 307 305 303 303
323 321 321 322 322 321 321 320 317 316 318 320 320 321 320 319 320 320 319 317 316 317 318 320 321 320 319 319 318 315 314 316 315 314 316 317 318 317 316 317 317 317 317 316 316 316 316 319 316 311 311 311 310 312 315 314 312 311 313 314 314 315 317 317 317 318 319 321 321 320 319 318 318 317 314 314 314 314 312 309 307 308 308 308 307 306 304 303
321 319 318 321 322 321 320 319 316 316 319 319 319 320 320 319 320 319 318 317 317 317 319 320 321 321 319 319 319 316 314 315 314 313 315 316 316 316 315 316 316 316 316 316 316 316 315 317 317 312 310 312 312 313 315 316 314 312 313 314 314 314 314 315 317 317 317 319 320 320 320 319 317 316 315 315 314 314 314 311 309 310 309 308 308 307 305 304
319 318 317 318 320 320 318 317 316 317 318 319 319 319 319 319 319 318 317 317 317 317 319 321 321 321 320 319 319 316 314 314 314 313 314 314 315 316 314 314 315 315 314 314 315 316 315 316 316 313 311 313 314 313 312 314 315 314 314 315 315 315 315 316 318 317 315 317 319 319 319 318 315 314 314 314 314 314 314 313 312 311 310 309 308 308 306 304
318 318 317 316 318 319 317 316 316 317 317 319 319 319 319 319 319 318 316 316 317 317 317 319 321 322 321 320 319 318 316 316 315 314 315 314 315 317 313 311 312 313 312 314 315 314 314 315 316 315 313 314 313 310 309 309 312 314 314 315 316 315 315 317 319 317 315 316 316 316 317 317 313 310 311 310 309 310 312 313 313 312 310 309 308 308 307 305
317 316 316 316 317 317 317 316 317 317 318 319 318 318 318 318 318 317 316 315 317 317 317 317 319 320 321 320 320 319 318 317 317 315 316 317 317 315 310 309 311 313 313 315 315 313 313 315 316 316 314 312 311 309 309 308 310 313 314 313 315 316 316 316 316 315 315 315 315 315 316 316 311 307 307 307 304 305 307 309 310 310 309 308 307 307 306 305
317 315 314 315 316 316 317 317 317 317 318 318 317 316 317 318 317 317 316 316 317 317 317 318 318 318 320 319 319 319 317 317 318 316 316 319 317 311 307 308 311 313 314 314 315 314 314 315 316 317 316 315 314 313 312 310 311 312 313 313 314 315 316 315 313 313 314 316 316 315 316 317 311 306 307 307 306 307 308 307 307 308 308 307 306 306 306 305
316 315 314 314 315 315 316 317 316 316 317 317 316 316 316 317 317 316 317 317 317 317 317 317 317 318 318 317 318 318 317 318 319 317 315 318 315 308 306 308 309 311 312 311 314 315 314 316 316 317 319 319 318 317 316 314 312 312 313 314 313 314 315 314 313 314 315 316 316 315 315 316 312 307 308 308 307 308 309 308 307 307 308 307 306 306 305 305
316 316 313 312 313 313 313 315 315 316 317 317 317 316 316 316 315 315 317 318 317 316 317 317 316 317 317 317 317 317 317 317 318 317 315 316 314 308 305 307 307 309 310 310 312 314 315 317 317 317 319 319 318 317 317 316 314 313 313 313 313 314 315 314 314 315 315 315 316 315 315 316 313 310 310 310 309 309 309 308 307 306 306 306 306 305 305 304
315 316 314 312 313 312 312 313 314 315 317 317 317 316 316 316 315 315 316 317 317 316 316 315 316 317 317 317 317 318 317 317 315 315 315 315 313 308 305 306 307 308 309 310 311 313 315 316 316 318 318 317 316 315 315 315 315 314 314 314 313 314 315 315 315 315 315 315 316 315 315 315 314 312 312 311 310 310 310 309 308 307 306 306 305 305 305 304
312 313 312 313 314 313 313 313 313 315 316 317 317 317 316 316 316 316 315 315 316 316 316 315 315 316 317 317 318 318 318 317 315 315 315 314 312 309 307 307 307 307 309 310 310 312 314 314 315 317 317 316 316 314 312 314 314 314 315 314 314 314 314 314 314 314 314 315 315 315 314 315 314 312 312 311 310 310 310 310 309 307 307 307 305 305 305 305
308 309 309 310 312 312 313 313 312 313 316 316 316 317 317 316 316 316 315 314 314 315 316 316 315 315 317 317 318 318 317 316 315 314 313 313 312 311 310 310 308 306 308 311 310 310 313 314 315 316 315 315 316 315 313 313 313 314 314 314 314 314 314 313 313 313 314 314 314 314 314 313 312 312 311 311 311 310 310 309 309 308 307 307 306 305 305 306
306 307 307 307 308 307 310 313 313 313 314 314 315 315 316 316 316 316 314 314 314 315 315 316 316 315 316 317 317 317 316 316 317 314 311 312 311 310 310 312 310 306 307 311 310 309 312 314 314 314 315 315 315 315 313 312 312 312 313 313 313 313 313 313 312 312 313 313 313 313 313 312 311 311 311 311 310 310 309 309 308 308 307 307 306 305 305 306
307 307 306 307 307 306 307 310 311 312 313 312 314 315 315 316 316 315 314 313 314 314 314 315 316 315 314 314 314 315 314 313 314 312 310 311 311 310 311 311 310 308 308 309 310 309 311 311 310 312 314 314 313 313 311 310 311 311 311 312 312 312 312 312 312 312 312 312 312 312 312 311 311 310 310 310 310 309 309 309 308 308 307 306 305 305 306 306
306 306 305 305 306 306 306 307 308 311 313 312 312 313 313 314 315 315 314 311 310 311 312 314 315 313 312 312 313 314 312 311 311 310 309 310 310 310 311 310 309 310 308 308 308 308 309 310 310 312 314 313 311 310 310 309 310 311 311 311 311 311 311 311 311 311 311 311 311 311 311 311 310 309 309 309 309 309 309 308 308 308 307 306 306 306 305 305
Wind_Speed
9 9 9 9 9 9 9 8 8 8 8 8 8 7 7 6 5 4 3 2 2 2 3 4 5 5 6 6 7 9 11 14 13 11 7 6 5 3 3 5 7 7 6 6 5 3 2 2 2 3 2 2 3 3 2 3 2 2 2 2 1 1 2 2 1 2 2 4 6 5 2 3 2 1 3 6 6 7 7 8 5 4 6 9 9 10 11 12
9 9 9 9 9 8 8 8 8 8 8 8 7 7 6 5 5 4 3 3 3 3 4 5 5 5 6 6 8 10 12 13 8 6 5 2 2 6 9 10 9 8 7 7 6 3 1 2 1 2 2 1 2 2 1 3 3 2 2 2 1 3 3 3 3 3 2 2 4 2 1 3 4 3 4 6 6 6 8 7 5 5 4 5 8 9 11 15
9 9 9 9 9 9 9 8 8 8 8 8 8 7 6 6 5 4 4 3 4 4 5 6 6 6 7 7 9 10 12 11 4 1 2 5 8 11 12 10 8 7 7 8 7 3 1 1 1 1 3 1 2 1 0 1 2 1 2 3 3 5 3 3 2 2 2 2 0 0 1 4 5 2 3 5 8 9 7 2 2 2 2 2 8 12 14 15
9 9 10 10 10 9 9 9 9 9 8 8 8 7 6 6 5 4 4 4 4 5 5 6 7 7 7 8 10 11 13 9 2 3 5 8 9 10 8 6 5 4 6 7 7 6 3 1 1 1 3 1 2 1 0 1 1 1 3 2 5 3 1 4 2 2 2 1 3 2 2 5 4 2 5 5 8 8 1 4 2 4 4 6 12 14 12 8
10 10 10 10 10 10 10 10 9 9 9 8 8 7 6 6 5 5 5 5 5 6 6 6 7 7 8 9 10 12 12 6 4 5 6 8 6 5 3 1 2 5 6 7 7 6 3 0 0 1 3 1 1 2 2 3 2 2 1 3 4 1 1 4 3 2 3 1 3 4 4 2 2 5 8 8 7 4 3 3 7 9 10 11 11 10 6 3
12 12 12 11 11 11 10 10 10 9 9 9 8 7 7 6 6 6 5 6 6 6 6 7 7 7 9 9 11 11 9 4 3 4 5 4 3 3 4 5 7 7 7 7 6 5 2 1 3 2 3 2 1 1 2 3 2 3 2 3 2 0 1 2 2 3 3 3 4 4 4 3 6 9 8 8 7 5 6 10 11 11 10 7 5 4 3 2
13 13 13 12 12 12 11 11 10 10 10 9 9 8 8 7 6 6 6 7 6 7 7 7 7 8 9 10 10 8 5 5 3 5 6 6 7 7 8 9 9 9 7 5 3 3 1 2 3 2 4 3 1 1 2 1 3 4 2 3 2 1 3 2 2 4 4 6 6 4 5 7 11 7 5 7 7 10 13 12 10 7 4 2 2 2 3 3
14 14 14 13 13 12 12 12 11 11 10 10 9 9 8 8 7 7 7 7 7 7 7 7 8 8 9 10 8 6 6 7 7 8 9 10 9 8 10 9 10 9 6 3 2 2 2 3 3 2 4 1 1 0 1 2 6 6 3 2 2 2 5 5 4 6 6 8 7 6 9 12 11 6 5 6 8 12 12 8 5 2 1 0 1 1 2 2
15 15 14 14 14 13 13 13 12 12 11 11 10 10 9 9 8 8 8 8 8 8 8 8 9 8 10 8 6 7 6 6 7 7 7 8 8 9 9 9 9 7 6 5 3 2 2 3 2 2 4 2 1 2 1 4 3 2 3 1 2 5 6 6 7 8 8 8 6 6 12 13 7 6 6 5 8 10 7 3 2 1 1 1 1 2 2 3
16 15 15 15 14 14 13 13 13 12 12 12 11 10 10 10 9 9 9 9 8 8 8 9 9 9 9 7 6 6 4 5 7 5 6 7 6 8 8 8 8 5 4 4 2 2 2 3 2 2 4 2 2 1 1 3 2 3 4 5 8 10 8 8 9 9 7 7 8 8 11 8 3 5 4 6 8 7 4 3 2 2 2 3 3 3 4 4
16 16 16 16 15 15 14 14 14 13 13 12 11 11 11 10 10 10 10 9 9 9 9 9 9 9 9 7 7 7 5 7 7 6 7 6 6 7 7 8 6 5 3 3 3 3 4 4 3 3 3 1 2 2 3 3 3 3 5 8 10 11 11 12 11 8 5 4 6 7 10 6 5 4 2 7 8 7 6 3 3 3 4 5 5 5 5 5
17 17 17 16 16 15 15 15 14 14 13 13 12 12 11 11 11 10 10 10 9 9 9 10 9 9 9 8 11 12 10 11 11 9 9 8 9 8 8 9 8 7 6 5 6 6 6 4 4 3 2 1 1 2 2 2 2 4 5 8 9 9 11 11 8 5 4 3 3 4 8 8 9 4 5 9 9 7 6 4 3 3 4 5 5 5 6 5
18 18 17 17 16 16 16 15 15 14 14 13 13 12 11 11 11 10 10 10 10 10 10 10 10 9 8 9 12 13 12 13 13 13 12 11 12 11 11 12 11 11 9 7 7 7 6 5 5 4 3 4 3 1 0 2 2 5 5 5 7 9 6 5 6 5 5 3 5 4 6 4 8 6 7 7 8 8 6 5 4 3 4 5 5 5 7 7
17 17 17 17 17 17 16 16 15 15 14 14 13 12 12 11 11 11 11 11 11 11 11 11 10 9 8 9 12 14 14 13 12 13 14 13 13 13 12 12 11 10 8 8 7 6 6 6 5 4 4 3 1 1 3 3 4 5 5 4 5 6 2 8 9 6 5 3 5 6 5 2 7 8 7 8 9 8 7 6 5 3 3 5 5 5 7 8
17 17 17 17 17 17 16 16 15 15 14 14 13 12 11 11 11 11 11 12 12 12 11 11 10 8 8 10 13 14 14 14 15 15 14 13 13 11 11 11 9 8 7 7 7 7 6 5 4 4 2 2 2 3 5 5 5 4 4 5 5 4 2 7 8 5 3 3 5 6 5 3 6 9 7 9 10 8 7 6 5 4 4 4 4 4 5 8
17 17 17 17 17 16 16 15 15 15 14 13 13 12 12 12 12 12 12 12 12 12 11 9 9 7 7 9 12 13 13 13 15 15 15 15 13 10 11 9 7 8 7 7 7 6 6 5 4 4 2 3 4 4 5 5 5 5 5 6 5 5 4 3 6 4 3 3 5 6 6 6 4 10 9 10 12 9 7 7 6 5 4 4 4 4 4 5
17 16 16 16 15 15 15 15 15 14 14 14 13 12 12 12 12 12 12 12 12 12 10 8 8 8 9 11 11 11 13 15 13 12 13 14 13 11 9 7 7 7 7 6 6 5 5 5 4 4 4 5 5 4 5 5 5 4 5 5 6 7 7 4 2 5 5 3 5 6 7 9 4 10 13 12 12 11 9 8 7 5 5 5 4 4 3 3
16 16 16 15 14 15 15 15 15 15 14 14 13 13 13 13 12 12 12 12 11 9 9 9 6 4 8 13 11 9 11 13 12 12 12 11 12 10 9 8 7 7 7 5 6 7 6 5 4 4 5 6 6 6 6 6 7 6 4 4 6 7 7 7 4 5 6 4 5 7 9 11 10 7 13 13 12 11 9 7 7 6 5 5 4 3 4 5
17 17 16 15 15 16 15 16 16 15 15 14 13 13 12 11 10 11 13 12 10 6 4 8 11 5 3 6 10 11 10 9 10 12 12 11 11 10 10 8 8 9 8 5 6 8 6 5 4 5 6 7 8 9 9 9 9 8 7 6 8 8 7 10 6 4 4 5 7 9 11 11 12 10 9 12 10 10 8 7 7 6 6 5 4 4 4 6
18 17 17 16 17 16 16 16 16 16 15 14 13 11 8 7 6 8 11 15 18 15 10 7 11 10 5 3 7 9 8 7 8 10 12 11 10 10 9 8 8 8 7 6 6 6 6 6 6 7 9 9 10 12 13 10 6 7 8 8 9 10 9 11 6 4 3 4 7 9 11 12 12 12 8 12 10 9 10 9 8 8 7 6 5 4 4 7
19 18 17 17 17 16 16 16 16 16 15 14 13 10 6 6 6 3 5 12 17 20 19 15 13 13 11 8 8 7 6 6 7 10 12 11 12 10 9 10 8 6 8 6 4 4 5 7 9 11 11 8 5 7 10 8 7 8 9 8 9 9 9 11 6 3 3 2 7 8 11 11 11 13 8 12 10 9 11 10 10 9 7 6 6 5 4 6
19 19 17 17 17 16 16 17 17 17 15 14 15 14 10 10 10 7 5 8 12 14 18 20 20 20 18 16 14 11 9 7 8 12 13 13 14 10 10 12 8 6 8 7 4 3 6 9 12 12 7 2 0 2 6 8 8 8 7 7 8 7 8 10 5 3 2 3 5 7 9 10 13 13 7 10 8 6 7 6 6 8 8 6 6 5 5 5
20 18 17 16 15 15 16 16 17 17 16 16 16 17 15 12 12 10 8 8 11 15 18 20 23 22 20 20 21 17 13 11 11 15 17 16 15 13 11 11 10 8 8 9 8 7 7 7 10 10 5 4 5 4 5 7 7 8 7 6 7 7 7 6 2 3 2 5 6 9 9 11 14 11 4 6 4 5 6 4 5 6 6 7 7 6 5 5
19 18 17 15 13 14 15 15 16 17 17 18 18 18 16 13 11 8 7 8 9 12 17 21 22 21 20 20 21 19 16 15 13 14 20 20 15 12 12 11 12 9 8 12 13 12 10 2 2 6 6 7 9 6 7 7 6 8 10 9 8 9 8 7 4 2 5 7 5 7 9 8 10 8 6 4 4 5 5 6 6 6 7 8 9 8 7 7
18 17 16 15 14 15 15 15 17 18 18 19 18 17 15 12 8 5 3 7 9 7 11 17 18 18 21 21 19 15 13 16 15 13 19 22 17 11 8 10 11 10 11 14 12 14 12 2 5 6 6 7 9 8 9 8 7 8 9 10 11 11 10 10 8 5 7 5 3 3 6 3 2 5 7 5 4 5 6 7 8 8 8 9 8 8 9 10
17 17 17 17 16 16 15 13 16 19 19 18 16 14 14 10 6 3 1 4 8 4 6 10 11 10 14 18 18 13 6 11 16 17 19 23 22 14 6 7 8 8 9 11 9 7 3 4 5 6 6 7 8 9 9 8 8 7 2 3 7 8 9 9 7 3 4 4 2 1 6 3 1 3 5 8 7 7 7 7 8 9 9 10 9 8 9 10
18 19 19 19 19 19 15 12 15 17 15 15 14 14 13 10 7 3 2 5 7 5 8 7 8 8 9 13 20 15 2 5 12 16 21 24 22 15 9 7 7 5 3 3 5 3 4 7 6 6 7 8 8 8 8 9 8 4 2 2 1 5 7 6 5 5 5 5 1 5 5 6 6 6 3 7 7 7 7 7 8 10 10 11 10 9 10 10
20 19 20 20 22 22 18 14 15 16 15 13 14 15 13 12 10 6 3 4 3 6 7 5 6 7 10 16 21 12 2 7 8 9 19 23 19 12 11 11 8 8 8 7 6 2 4 8 9 9 9 8 7 4 5 9 7 1 4 3 1 1 4 4 4 5 4 4 4 6 5 4 7 4 4 5 4 6 8 9 10 11 12 12 11 11 11 12
21 20 20 20 21 20 19 18 17 16 14 11 13 16 15 15 11 5 1 4 2 6 5 6 7 7 12 16 14 6 3 3 0 5 15 19 17 9 6 10 9 8 11 10 7 0 2 2 5 8 9 7 4 3 2 6 5 3 6 4 4 1 1 2 4 4 3 4 7 7 7 5 6 3 5 3 3 4 5 7 9 12 13 12 12 12 12 14
22 20 19 20 22 21 21 23 22 18 14 13 14 17 19 16 8 4 5 4 2 3 5 7 7 8 14 13 8 6 4 1 3 9 10 9 13 8 1 4 5 5 6 6 6 1 3 1 1 4 4 2 6 7 4 1 4 6 6 4 3 3 2 3 4 3 4 6 6 6 9 7 5 2 4 2 1 3 3 5 8 11 13 13 13 13 13 15
24 23 23 24 25 24 23 26 26 21 17 16 17 23 22 10 2 6 8 1 2 2 5 6 6 10 15 12 7 8 7 4 8 12 8 6 9 8 5 5 4 4 4 6 6 3 3 3 2 2 3 5 7 5 3 3 4 5 5 4 4 3 3 4 4 3 6 5 1 1 4 6 5 2 1 3 5 5 3 4 8 12 13 14 14 13 14 18
27 27 28 29 28 26 27 27 24 22 21 19 24 28 18 4 3 9 6 4 1 4 5 5 7 9 14 11 6 9 8 6 10 11 8 7 8 9 9 8 7 6 6 7 7 4 5 7 5 4 3 6 7 5 4 2 3 5 5 6 5 4 4 4 4 5 5 3 2 3 3 4 7 6 3 4 6 5 4 4 7 13 14 15 15 15 17 21
31 31 32 32 32 30 30 28 22 23 23 22 29 24 9 4 9 10 7 4 0 1 4 4 7 8 11 9 5 9 8 5 10 10 8 9 8 9 11 10 10 7 4 6 7 4 4 5 7 7 3 8 10 6 5 5 6 8 7 7 7 5 5 6 6 5 4 1 2 3 2 2 5 6 5 3 7 6 7 6 5 11 15 16 17 18 20 23
30 31 32 34 34 33 33 30 25 23 24 27 26 13 4 7 6 2 8 6 1 2 4 5 8 7 8 7 4 8 6 4 10 9 6 9 7 8 11 11 14 9 2 5 7 7 6 3 8 10 6 11 14 7 5 6 8 9 7 6 6 4 5 5 4 4 2 2 3 3 2 4 4 1 1 4 6 5 6 6 6 8 13 15 16 19 22 25
28 29 31 33 35 37 35 33 28 24 28 30 18 5 5 8 3 2 6 5 2 3 4 5 8 7 7 5 3 8 5 3 11 9 6 9 8 8 10 10 14 11 6 6 4 6 9 4 5 5 3 12 15 5 2 6 7 7 4 4 5 3 4 3 0 1 2 1 2 4 3 3 2 3 4 4 4 5 5 6 7 8 11 15 16 18 23 26
29 29 33 35 38 39 37 35 31 28 33 28 10 3 8 6 3 4 4 4 5 6 8 6 5 5 6 5 4 8 3 0 9 9 6 9 9 10 10 9 14 15 11 8 3 4 7 2 5 4 2 5 6 2 2 2 3 5 5 5 2 2 3 3 1 3 2 4 4 5 5 4 2 3 5 6 4 6 6 6 9 10 12 15 15 18 24 28
33 33 35 39 41 39 38 38 33 32 36 23 6 6 8 6 8 7 4 5 6 9 8 4 5 6 7 5 6 10 4 2 8 7 5 8 7 11 12 9 13 18 16 10 4 4 4 1 4 5 3 2 3 2 2 2 1 4 5 4 3 2 2 3 3 1 4 7 4 5 8 6 5 4 4 6 5 6 8 8 9 11 13 15 15 19 26 30
37 37 37 40 42 40 41 40 35 37 32 15 8 11 6 5 10 9 7 7 7 9 6 5 6 7 7 6 5 9 7 4 7 6 6 6 5 10 14 10 10 17 20 13 3 2 4 2 3 2 2 4 2 2 4 1 1 1 2 1 1 2 4 5 4 4 5 7 5 6 9 8 7 5 6 9 9 8 9 9 10 12 15 16 16 19 25 30
36 32 30 38 43 41 41 40 40 39 24 8 10 11 4 5 10 12 14 10 6 7 7 7 7 5 7 7 4 8 9 7 7 5 5 6 4 7 12 10 9 15 22 17 5 2 3 4 3 2 2 5 5 5 7 7 4 1 3 3 1 2 3 4 4 3 4 6 6 6 6 6 6 7 11 13 12 11 10 9 9 13 16 17 17 19 25 31
35 22 14 28 38 40 42 41 39 30 13 7 10 7 4 6 7 13 19 12 4 5 7 8 9 6 6 7 3 6 8 6 6 3 2 4 3 3 8 9 7 10 16 17 9 3 3 4 3 3 3 5 5 6 8 8 8 6 5 6 5 3 1 2 4 3 3 5 6 6 7 4 1 4 9 12 12 12 11 9 9 12 15 16 17 19 24 29
30 12 4 15 25 35 43 35 23 14 6 7 9 6 8 8 6 11 17 12 5 3 3 5 8 7 5 6 5 5 6 5 6 5 3 6 6 4 4 4 5 8 7 8 9 6 4 5 4 4 5 6 3 2 2 3 5 7 8 8 8 7 4 3 5 4 2 4 4 5 8 4 2 3 3 4 4 6 8 8 8 10 13 14 15 16 19 24
21 7 4 13 17 32 40 22 8 9 8 8 7 6 7 8 8 11 14 12 7 2 2 3 6 7 6 6 5 5 6 4 7 8 6 8 9 4 2 1 6 11 8 3 4 3 0 2 5 4 4 4 2 3 1 2 2 3 5 6 7 8 7 7 7 4 3 3 1 3 7 4 2 4 4 3 3 4 5 6 8 8 9 11 12 13 15 18
16 7 8 15 23 36 32 10 4 9 7 6 6 5 7 8 10 12 12 12 8 4 5 4 5 7 6 5 4 5 7 6 7 8 5 5 6 2 2 5 7 9 8 2 2 3 2 2 6 4 2 3 3 2 1 1 2 3 4 4 5 7 6 6 4 1 3 5 3 4 8 4 2 3 3 2 1 2 3 4 6 6 6 8 9 11 12 15
15 9 12 22 33 38 23 5 7 10 7 6 7 7 7 6 11 13 12 13 10 6 6 5 6 8 5 3 5 7 8 7 7 8 5 4 4 2 4 8 7 6 5 2 3 8 6 4 7 6 4 4 2 2 3 3 3 5 5 5 6 7 4 2 1 0 4 6 4 6 10 5 2 1 2 1 1 1 2 3 4 4 4 6 9 11 13 15
11 7 12 27 41 37 19 7 7 9 9 10 9 12 9 4 9 14 12 13 12 8 6 4 5 6 3 3 3 5 9 7 5 6 4 3 2 2 4 8 7 5 4 4 3 8 6 3 7 9 8 8 7 5 5 5 5 3 4 6 8 11 9 5 3 5 7 5 4 7 10 4 2 1 2 2 1 2 3 4 4 5 5 7 10 12 14 17
9 5 5 16 29 28 20 14 9 5 9 11 8 9 12 7 6 10 12 14 14 13 7 2 4 5 4 6 6 6 9 7 2 2 6 5 2 0 3 7 6 5 4 4 4 5 1 2 6 8 7 4 2 2 2 5 8 7 6 8 9 11 10 7 5 7 6 3 5 11 11 8 7 7 7 6 5 6 6 6 6 6 9 11 12 14 15 17
7 5 4 7 11 12 14 15 11 5 8 12 6 6 13 13 6 7 13 12 12 15 8 0 5 8 8 11 11 8 10 9 3 4 8 7 2 1 2 4 4 4 2 3 6 5 1 3 7 9 7 1 4 2 2 6 10 10 10 11 11 10 10 9 8 7 5 5 10 13 10 9 14 13 7 8 8 7 7 7 8 9 11 12 13 14 15 16
5 3 7 10 7 5 9 13 13 9 10 12 8 7 13 17 12 10 11 7 8 15 10 2 9 15 13 14 11 7 8 7 5 7 8 6 4 2 2 2 0 3 2 1 3 3 2 6 7 8 9 4 4 4 2 4 5 7 9 11 12 13 13 12 11 10 9 9 11 13 9 8 14 15 5 7 9 8 7 8 10 10 12 14 15 16 16 17
5 2 5 10 6 2 5 12 14 11 11 11 8 7 12 18 18 12 8 5 5 12 13 9 12 16 14 13 11 8 10 10 9 9 8 7 7 4 4 1 1 3 2 1 1 1 2 4 4 6 9 7 3 4 3 3 4 6 9 11 13 14 13 11 12 14 13 11 13 14 13 13 16 14 5 4 7 7 6 7 9 12 14 17 19 19 18 18
6 3 3 5 3 2 2 8 12 10 8 8 7 9 10 16 19 12 8 9 8 9 13 15 15 14 12 11 11 13 15 12 9 9 9 8 7 5 4 3 3 4 2 2 0 1 2 2 1 4 6 5 5 6 4 4 5 7 11 14 16 15 12 11 13 13 12 13 16 15 14 17 16 10 8 9 7 5 7 9 10 13 16 18 19 20 21 21
10 6 4 3 1 1 1 3 7 7 7 6 7 9 10 14 16 12 7 9 10 9 13 19 15 9 8 9 12 15 14 9 5 8 14 13 8 7 6 4 6 6 4 3 2 1 3 2 2 3 5 4 5 6 5 4 0 6 14 19 18 14 12 12 12 11 11 13 13 12 12 14 11 6 6 10 9 7 10 12 13 14 14 17 20 23 23 23
14 10 6 4 1 3 2 1 2 6 7 7 8 8 7 10 12 11 7 5 6 4 7 14 13 8 6 11 16 15 11 8 5 8 16 15 8 6 6 6 9 8 5 4 2 2 4 4 3 4 5 2 4 6 6 6 1 7 11 12 13 12 13 13 11 12 14 12 9 10 12 11 8 5 5 7 8 10 13 14 14 12 13 18 24 25 24 23
Wind_Direction
178 177 176 176 175 174 173 173 172 171 171 172 172 173 172 173 175 179 191 205 235 283 302 313 322 327 333 335 338 343 344 342 343 342 327 299 293 232 181 137 119 102 89 69 53 46 27 2 336 353 346 349 25 37 40 40 7 286 261 250 242 125 91 76 98 83 81 119 126 124 53 305 284 9 319 308 263 229 256 259 238 218 249 266 264 272 278 281
184 183 182 182 182 181 181 180 181 182 182 183 183 183 185 189 190 197 210 231 258 287 304 314 322 328 332 335 339 342 341 342 348 346 337 339 116 133 130 122 111 94 76 60 55 49 328 285 297 331 301 285 33 38 43 22 333 310 302 266 51 59 69 54 47 70 51 86 108 118 51 321 305 343 340 302 273 250 271 257 192 181 215 271 268 271 284 287
191 190 190 190 190 190 191 190 191 194 194 194 196 194 195 199 206 216 230 253 274 295 308 317 323 327 331 334 336 339 339 337 342 23 53 118 126 126 124 118 104 80 60 49 47 42 17 292 275 315 288 280 55 34 40 7 318 351 296 278 79 67 80 93 71 86 47 42 8 255 60 301 286 303 304 299 295 280 278 275 168 191 119 342 285 281 291 292
201 199 198 197 197 198 199 200 200 202 204 205 206 206 206 211 222 234 250 270 286 301 311 316 320 323 327 331 333 338 333 317 226 161 141 137 133 129 125 115 89 44 26 25 28 27 35 352 324 348 275 240 91 249 243 51 344 340 289 343 76 67 96 123 114 122 97 13 289 292 259 273 253 227 271 279 285 275 297 59 340 307 308 292 288 290 294 292
209 208 207 205 202 202 203 207 209 209 211 213 216 218 222 227 237 249 264 281 291 302 308 310 315 319 324 329 331 336 327 300 159 153 156 144 141 140 144 149 335 338 352 1 13 16 34 104 272 279 269 247 133 231 118 84 315 274 238 47 74 13 330 120 122 144 142 216 259 256 249 267 242 251 258 248 266 292 46 346 296 293 286 279 282 288 291 282
217 215 214 214 210 209 208 210 213 215 218 221 226 228 234 240 249 259 270 281 289 295 299 302 309 314 321 327 328 331 319 302 126 163 173 161 206 233 260 279 298 310 333 349 6 8 32 217 258 256 290 289 247 279 82 102 287 278 159 108 101 242 297 115 143 191 179 225 240 251 260 280 275 269 249 236 254 268 276 285 288 288 283 281 274 269 259 236
222 220 220 219 218 216 214 216 217 220 223 226 231 234 239 246 253 263 269 276 283 286 292 298 304 313 318 323 327 325 295 285 265 230 231 254 263 261 269 278 290 303 327 343 351 340 301 249 268 283 288 275 268 358 76 156 238 268 257 128 132 204 254 257 199 217 218 238 252 266 269 266 266 264 234 233 238 247 265 277 279 282 283 277 259 244 233 220
226 225 225 224 224 223 220 222 222 224 227 228 233 235 241 247 252 260 265 271 275 279 286 293 301 312 314 318 327 307 267 256 261 254 254 263 263 259 265 273 284 299 316 311 285 281 249 255 274 280 280 299 347 325 81 270 228 240 287 97 153 229 239 241 233 240 242 248 257 252 258 266 258 250 252 233 219 244 262 269 260 280 6 356 248 249 237 243
230 229 229 229 228 228 227 227 226 228 230 231 234 236 241 245 250 256 260 266 271 277 284 290 299 305 306 314 315 294 265 245 262 262 254 259 259 258 261 267 277 292 306 301 280 248 239 265 267 271 305 356 302 273 152 262 241 228 319 347 251 258 250 245 247 254 251 246 247 247 264 270 248 239 254 203 212 244 246 225 200 105 23 313 288 284 301 321
234 232 232 232 232 232 232 231 231 231 232 234 236 239 242 245 250 255 258 264 267 274 280 285 294 296 299 304 288 279 256 253 272 264 254 257 254 256 256 259 266 273 290 298 280 226 238 258 226 243 294 296 233 240 188 252 328 5 313 298 273 268 263 250 249 253 250 244 240 251 273 274 179 224 242 167 201 220 171 178 167 147 234 268 278 290 295 298
236 234 233 233 234 235 235 235 236 235 236 237 239 242 245 248 251 254 257 261 265 271 278 281 287 287 290 287 268 265 254 263 279 269 257 253 249 253 250 249 247 242 251 280 275 235 230 234 211 242 270 205 185 190 213 253 316 328 308 296 271 261 256 244 243 243 236 240 229 242 270 256 177 219 190 145 177 169 143 164 166 190 231 243 253 260 264 271
235 235 234 233 234 234 235 236 237 237 238 239 241 243 246 249 251 254 257 261 265 269 273 277 281 281 284 274 256 255 258 264 271 265 250 247 255 254 248 245 237 244 254 264 267 249 237 221 201 240 282 300 242 188 200 216 272 294 285 289 283 269 257 238 223 202 205 205 174 223 268 238 200 184 124 146 169 154 156 173 163 208 234 243 254 266 279 288
235 234 234 232 233 233 234 235 236 236 237 239 241 242 245 249 251 255 258 263 267 270 274 276 278 278 277 268 254 254 260 262 261 255 249 251 256 254 251 251 247 255 257 245 249 245 233 210 194 223 263 280 273 202 120 156 231 277 258 270 294 282 258 180 141 152 190 173 159 220 284 236 176 146 124 156 171 161 175 179 171 201 230 254 270 286 293 293
235 234 233 231 231 232 233 234 236 237 237 240 242 243 246 248 252 256 261 265 268 270 273 272 274 275 268 263 260 259 261 259 252 246 248 249 250 255 255 255 254 253 250 236 233 227 217 199 194 222 239 260 263 185 249 218 224 265 267 249 263 276 224 138 141 163 192 157 166 215 276 265 147 137 142 163 169 171 186 183 176 190 218 256 273 280 287 284
235 234 232 231 231 231 232 233 236 237 239 240 241 244 245 248 252 256 261 264 267 269 271 272 272 270 267 264 262 264 261 253 248 245 244 244 246 252 252 251 250 243 236 227 217 210 209 192 202 228 188 181 200 226 250 241 229 236 263 260 230 243 208 154 153 177 208 140 168 211 269 278 139 142 155 164 172 179 193 192 180 190 208 238 260 261 272 283
234 233 231 231 230 231 232 233 236 238 239 241 242 244 246 250 253 256 260 262 264 265 266 269 263 257 266 262 257 263 260 246 246 246 242 240 238 240 246 245 237 230 222 215 212 207 202 185 205 223 166 194 218 231 253 253 242 217 229 267 256 248 258 182 142 160 175 142 183 217 267 292 137 144 159 169 176 185 204 204 190 198 208 214 227 237 251 277
233 233 231 230 229 231 233 236 239 239 240 242 243 245 248 251 253 256 259 259 261 261 258 259 259 259 256 253 255 258 253 246 245 243 237 235 234 231 232 220 206 211 201 197 201 189 184 177 192 209 208 232 227 222 245 247 252 226 206 250 267 261 265 259 157 147 160 186 222 222 245 273 246 160 164 174 179 188 210 209 196 202 204 210 217 223 227 240
232 233 233 233 230 231 234 239 242 243 244 244 245 246 247 251 255 257 257 256 255 257 257 241 230 265 251 237 238 237 244 247 239 236 232 227 225 215 203 198 187 177 171 182 185 178 184 181 197 229 218 221 217 211 224 239 270 278 249 260 275 262 250 259 259 148 165 213 246 251 253 262 265 208 172 172 180 190 207 200 193 205 199 204 203 199 223 241
231 233 235 237 236 233 235 238 241 244 244 242 243 244 247 254 260 261 255 245 226 218 259 218 199 223 265 224 228 231 243 247 229 226 223 216 211 197 190 188 175 172 178 183 180 182 191 183 198 232 224 215 211 211 228 253 283 298 292 291 289 278 259 267 277 130 164 255 256 261 265 261 268 256 187 167 180 194 200 193 195 205 195 192 187 190 222 241
232 234 235 237 239 238 237 238 240 241 239 237 236 234 241 247 254 257 240 234 231 230 247 226 206 229 258 251 237 229 230 231 218 215 215 209 194 180 178 172 169 192 210 202 178 171 192 211 212 220 229 234 224 220 237 263 292 296 289 281 274 272 268 274 282 107 110 286 268 262 269 263 264 270 223 166 173 194 198 203 205 201 187 183 185 185 211 237
230 233 234 236 239 240 238 238 239 238 234 230 224 215 216 222 229 239 224 244 250 244 246 241 228 233 238 241 238 218 202 203 209 211 210 197 179 174 175 174 178 207 212 197 155 137 192 225 227 229 239 252 250 235 244 263 274 270 272 271 266 263 267 273 273 102 101 276 277 273 272 264 258 269 235 166 176 199 197 205 206 195 179 175 183 183 206 241
227 228 231 234 237 238 236 235 236 237 231 223 218 214 215 221 228 242 268 272 266 253 247 242 239 239 239 240 237 226 209 198 205 212 205 185 181 190 182 181 206 215 182 169 151 173 216 231 234 235 236 227 331 269 254 260 262 258 257 258 262 263 273 274 259 97 106 240 284 293 284 274 267 267 224 168 186 190 176 190 190 184 182 179 182 180 195 224
225 224 226 229 233 233 231 232 233 232 229 223 220 219 223 227 231 245 267 281 272 254 244 242 242 239 234 236 236 226 216 215 217 214 208 191 185 201 193 186 218 218 176 185 207 221 230 238 234 222 193 202 230 231 232 247 249 243 243 248 257 262 270 270 232 107 185 243 287 299 289 276 267 257 187 151 170 146 139 150 155 170 178 178 182 180 182 190
223 220 222 223 226 230 229 229 230 230 230 227 226 225 226 230 236 252 267 274 269 244 238 242 240 234 225 230 235 223 216 227 226 211 209 200 184 194 205 206 222 223 202 207 217 232 243 267 155 188 184 221 235 221 213 233 245 233 231 237 254 265 261 262 274 306 270 249 250 279 280 271 254 226 172 136 147 154 156 165 169 175 176 182 192 192 189 183
224 220 221 218 222 231 230 229 229 229 229 229 230 225 224 228 229 249 270 270 262 227 230 238 233 231 224 224 228 213 213 230 223 209 208 200 185 181 202 213 221 228 221 217 223 241 245 149 117 169 179 210 229 229 215 221 252 248 228 227 247 269 271 271 285 309 293 264 188 245 280 272 187 194 179 156 166 176 173 184 186 181 181 189 193 193 200 199
226 223 219 216 221 224 224 231 231 229 228 230 229 216 215 213 199 214 234 275 266 200 181 209 209 216 214 213 204 185 216 231 209 212 209 197 192 187 193 202 210 239 233 220 231 251 227 134 153 183 184 200 219 238 222 208 244 262 239 211 243 269 273 271 275 266 279 292 129 213 285 290 276 244 181 160 178 177 173 194 189 182 186 185 184 182 189 199
223 223 219 215 219 218 210 219 227 223 223 229 220 202 201 190 165 134 103 273 267 163 140 167 179 183 185 187 179 172 214 169 174 205 202 193 195 194 210 196 183 231 226 188 230 234 151 162 181 188 199 210 215 236 219 200 233 257 48 42 242 264 263 252 247 238 267 308 235 208 251 279 279 271 186 157 178 178 179 198 190 188 190 181 182 180 174 182
220 221 221 216 220 220 207 211 226 221 222 224 205 191 183 167 154 118 106 258 263 121 132 151 155 165 160 163 168 168 110 123 149 197 187 188 190 188 220 218 209 215 185 184 225 226 142 177 189 190 203 217 213 229 184 189 227 229 83 64 81 302 274 243 237 243 263 302 265 218 200 252 271 246 165 151 200 213 201 197 191 190 187 180 180 176 172 180
220 218 220 220 225 224 212 217 224 219 219 211 189 185 168 150 143 110 114 239 182 110 122 144 147 152 147 157 173 169 106 115 126 172 171 186 184 173 225 226 236 223 186 207 239 284 73 188 203 197 207 217 179 72 93 194 213 136 118 100 94 97 235 219 239 248 249 257 261 234 187 225 287 238 176 175 227 233 200 183 185 186 182 179 178 172 171 182
222 219 219 219 220 219 217 220 221 217 213 198 185 172 156 147 140 163 209 227 214 100 108 140 151 150 149 157 185 196 175 124 95 140 155 179 183 186 206 184 227 222 182 230 254 147 78 72 248 214 213 177 112 78 38 89 128 138 147 134 138 172 180 210 229 239 255 246 248 234 196 212 281 243 192 199 110 97 116 155 170 177 178 176 175 171 173 185
226 224 221 219 220 219 217 218 219 215 201 189 177 160 153 148 135 208 213 268 348 118 127 149 143 150 166 172 181 188 191 163 137 152 155 156 178 190 178 161 187 206 204 235 233 191 157 167 175 179 159 120 112 99 61 76 134 162 170 170 173 178 179 207 203 203 247 241 202 197 189 210 239 228 130 94 97 94 102 155 171 175 176 174 173 171 176 188
228 227 226 226 227 225 221 224 224 210 195 181 168 160 153 151 218 219 209 68 42 182 142 152 158 169 185 189 187 176 178 174 165 172 174 169 182 187 192 193 172 185 226 219 204 187 198 203 172 133 155 175 159 131 113 122 186 191 181 181 191 191 186 209 202 199 233 228 116 119 160 213 238 246 240 134 122 119 98 109 167 176 174 172 171 173 181 188
229 228 231 231 231 228 226 229 223 204 194 178 168 162 147 200 212 219 200 145 184 169 94 121 164 178 187 191 194 170 170 182 173 180 186 182 196 198 205 212 194 205 247 196 186 178 193 210 179 161 174 203 198 176 165 176 185 192 188 185 198 203 208 222 214 213 228 175 116 131 152 228 241 250 250 137 108 103 96 90 140 171 174 172 172 179 186 188
233 230 232 233 234 233 231 228 214 202 195 177 170 163 152 209 210 205 194 181 62 95 97 115 147 163 191 199 180 162 171 187 172 175 183 185 206 207 205 215 211 220 252 182 192 194 210 234 181 179 166 180 195 211 198 169 175 197 199 201 221 233 241 239 225 232 235 122 138 149 182 215 198 167 72 90 91 96 102 109 129 157 170 168 169 182 190 190
238 238 234 233 232 229 230 226 211 202 192 176 167 167 190 209 208 152 194 170 115 146 122 128 145 159 201 212 180 178 196 208 176 179 191 194 209 208 202 210 206 207 209 203 200 195 223 250 148 150 127 169 184 207 202 164 172 190 199 225 238 261 268 261 321 17 48 58 192 184 225 240 179 121 113 118 128 129 125 136 145 153 163 165 169 182 191 193
236 240 234 230 227 225 226 224 210 198 188 175 161 202 202 215 196 172 187 151 152 151 128 144 168 171 198 204 194 194 210 75 176 184 205 205 219 221 212 206 197 199 202 200 185 182 217 238 117 114 81 168 183 182 181 192 171 163 184 212 204 358 299 246 172 88 108 271 249 185 221 248 201 176 148 144 151 150 158 167 166 167 169 172 177 184 192 196
229 232 230 227 227 228 226 221 210 196 188 181 181 206 197 210 193 174 167 146 141 142 140 171 186 182 196 199 200 193 173 132 176 188 198 193 219 220 211 211 198 199 207 214 227 210 210 196 145 161 154 108 22 44 135 333 359 149 182 197 126 44 314 252 250 210 203 254 256 184 211 221 208 202 148 155 172 165 174 178 173 177 180 186 189 191 197 199
227 224 226 229 230 228 223 220 208 194 190 190 213 211 197 195 187 169 154 144 134 147 168 210 188 184 201 200 193 178 167 165 172 186 195 183 207 199 191 204 201 198 207 215 242 228 215 215 156 158 144 122 106 162 169 209 271 255 271 245 141 207 218 203 222 247 238 249 256 219 215 218 222 204 160 177 192 184 178 174 176 185 188 195 195 193 199 201
228 218 223 230 229 226 224 218 202 190 189 198 216 214 197 182 185 175 168 157 139 163 189 214 199 197 211 205 177 160 174 186 168 175 202 190 201 184 181 197 199 198 204 204 216 231 216 234 194 144 107 131 151 195 194 186 187 274 283 236 218 260 241 208 205 234 251 249 264 260 231 224 230 192 170 181 194 190 177 170 187 194 192 196 194 191 199 203
221 213 228 230 225 224 220 208 194 188 192 206 212 212 183 181 179 177 177 166 143 177 193 203 196 196 209 212 202 163 179 196 173 173 223 194 210 194 187 200 191 190 200 204 217 223 192 229 210 131 138 165 180 200 201 192 181 188 208 199 190 193 214 265 236 226 251 255 261 272 264 250 193 157 168 179 191 190 178 174 189 193 192 197 196 195 202 205
212 209 243 215 219 217 204 193 187 188 203 212 217 221 201 194 174 172 180 177 177 199 197 198 196 191 185 199 208 171 169 194 188 192 216 201 216 219 186 202 173 157 169 197 213 212 197 214 194 151 181 200 192 159 193 222 196 191 199 198 196 191 180 219 229 200 212 255 256 268 276 272 95 81 130 155 172 170 163 165 171 178 187 194 197 198 204 208
203 215 217 184 202 202 189 183 188 189 203 213 209 205 187 184 180 172 173 182 194 200 193 212 203 195 190 194 196 159 158 187 193 198 216 210 211 211 146 144 155 156 155 175 209 197 88 219 195 167 178 184 103 67 65 313 280 236 227 211 201 197 196 213 227 206 182 221 260 282 280 283 80 48 44 61 46 75 121 140 140 148 166 177 187 194 201 211
197 208 197 178 193 194 184 182 200 188 208 203 178 169 158 173 194 179 170 185 190 170 188 207 190 200 214 196 177 168 171 187 196 195 211 215 207 195 143 158 155 165 176 185 188 159 100 207 198 170 112 107 85 69 94 335 282 239 237 227 212 211 211 221 239 232 192 206 197 229 252 249 101 29 23 67 69 88 129 145 139 136 151 176 192 199 202 207
200 193 178 177 187 190 186 187 191 197 214 178 171 187 172 187 204 187 178 189 187 172 190 200 186 201 217 172 174 192 181 190 211 199 196 208 192 141 152 164 159 177 202 224 175 171 169 197 195 185 179 171 166 203 212 204 203 217 219 202 209 217 204 174 135 182 238 228 205 233 250 239 123 356 322 118 141 181 164 169 175 165 167 198 213 218 215 215
192 184 178 180 184 188 196 213 193 202 209 191 197 201 187 203 211 197 192 191 190 186 184 195 187 182 176 140 174 204 191 198 219 200 196 215 186 141 163 168 166 188 236 291 224 181 181 203 193 192 199 198 197 207 206 186 173 208 216 183 199 212 201 187 204 221 230 213 179 228 249 247 131 186 225 189 191 213 180 168 185 192 191 206 220 226 224 223
180 185 181 183 190 198 213 222 206 199 203 199 206 199 192 202 203 196 197 195 196 194 183 174 160 152 161 180 192 208 205 212 238 185 197 201 188 113 171 167 172 195 242 264 210 180 181 263 216 217 228 216 193 210 165 149 163 187 196 185 198 211 204 200 216 223 228 219 216 231 240 250 245 213 179 173 200 211 195 175 175 198 216 221 223 226 224 224
183 192 171 173 200 216 227 223 211 200 197 194 190 188 197 202 190 188 201 203 195 189 187 157 175 180 188 189 198 212 202 202 208 196 199 192 148 42 147 148 163 192 222 217 185 161 141 233 225 232 246 288 66 68 126 155 179 193 193 195 202 203 199 204 215 219 220 233 245 240 224 231 250 248 208 177 199 214 198 185 187 202 215 217 215 216 216 220
196 213 179 174 187 215 223 215 205 202 199 193 191 191 196 199 197 191 195 197 182 183 189 226 206 205 197 186 197 206 189 198 215 204 197 180 153 134 135 103 126 197 206 206 179 151 180 220 218 220 236 239 91 89 103 146 181 202 202 205 207 201 196 200 214 223 216 223 248 251 236 231 255 267 252 164 192 221 214 200 199 201 203 202 205 211 217 223
208 261 193 184 192 240 229 205 194 201 207 198 201 207 198 200 203 196 170 149 179 194 197 206 213 212 204 194 199 196 186 196 209 207 194 169 165 160 142 146 219 182 165 155 189 181 195 218 204 197 230 246 171 155 187 186 205 234 234 231 227 218 203 193 211 225 224 234 252 259 269 268 261 267 273 203 208 223 232 219 197 200 209 208 209 217 225 232
212 223 187 183 205 332 292 190 177 192 211 199 204 214 207 204 204 196 168 167 181 193 199 211 215 205 197 195 201 208 205 199 199 197 178 161 169 182 176 177 158 141 144 159 182 258 210 205 151 173 215 234 182 165 174 193 219 244 250 247 242 235 220 206 217 224 223 237 249 257 270 269 263 267 270 258 241 199 215 230 221 219 221 216 217 226 234 238
225 219 191 174 199 201 245 187 170 185 203 200 206 209 210 212 202 186 183 199 198 188 198 209 208 188 180 189 205 218 211 190 168 165 169 171 170 172 175 152 138 146 160 165 151 188 207 187 119 173 211 212 169 163 147 110 41 266 257 249 241 233 227 222 224 223 218 228 242 249 251 255 265 281 254 245 244 232 236 246 246 235 220 219 229 234 239 244
226 224 207 189 212 188 183 335 202 198 201 202 205 200 205 215 196 176 185 215 205 192 204 204 189 164 174 197 209 217 199 172 161 162 176 185 172 159 178 163 155 162 161 151 144 149 179 177 153 181 207 188 150 158 131 95 74 258 252 240 224 217 220 224 228 230 225 223 227 233 238 249 272 288 258 238 235 243 251 254 254 241 221 232 243 241 243 248